sat.trackr.live / text

‹ back to catalog

STARLINK-3860

NORAD 52477 · 2022-049AC

PAYLOAD ACTIVE UNKNOWN

§ Identity

Operator
Country
US
Launch date
2022-05-06
Launch site
AFETR
Launch vehicle
Mass (kg)
RCS (m²)

Purposes: comms

External: N2YO · Heavens-Above · Gunter

§ Orbital elements

Epoch: 2026-05-25T04:04:06.877920Z

Period
95.44 min
Inclination
53.2140°
Eccentricity
0.0001091
Mean motion
15.08844617 rev/d
Perigee alt
539.0 km
Apogee alt
540.5 km
Semi-major
6,917.9 km
B*
3.6818e-5
RAAN
65.7891°
Arg perigee
104.8266°
Mean anomaly
255.2847°
Rev number
22,517

§ Raw data

STARLINK-38601 52477U 22049AC  26145.16952405  .00000298  00000+0  36818-4 0  99902 52477  53.2140  65.7891 0001091 104.8266 255.2847 15.08844617225170

JSON: /api/v1/satellites/52477 · /tle

For live sub-satellite position, see the globe view (requires WebGL).

§ Visibility from observer

Set your observer location to see the next 7 days of passes ≥ 10°. The values pass through the URL so the page stays shareable.

No JS? Fill the form by hand. The geolocation button needs JavaScript.